TimePST,TemperatureF,Dew PointF,Humidity,Sea Level PressureIn,VisibilityMPH,Wind Direction,Wind SpeedMPH,Gust SpeedMPH,PrecipitationIn,Events,Conditions,WindDirDegrees,DateUTC
12:56 AM,51.8,44.6,76,29.89,10.0,West,11.5,-,N/A,Rain,Light Rain,270,2012-12-26 08:56:00
1:56 AM,51.1,43.0,74,29.90,10.0,West,13.8,-,0.00,,Scattered Clouds,280,2012-12-26 09:56:00
2:56 AM,51.8,42.8,71,29.90,10.0,WNW,11.5,-,N/A,,Mostly Cloudy,290,2012-12-26 10:56:00
3:56 AM,50.0,42.8,76,29.90,10.0,West,11.5,-,N/A,,Mostly Cloudy,280,2012-12-26 11:56:00
4:56 AM,51.1,41.0,68,29.90,10.0,West,12.7,-,N/A,,Mostly Cloudy,260,2012-12-26 12:56:00
5:56 AM,48.9,43.0,80,29.92,9.0,WNW,5.8,-,0.03,Rain,Light Rain,300,2012-12-26 13:56:00
6:56 AM,48.9,42.1,77,29.94,10.0,West,4.6,-,0.03,,Scattered Clouds,260,2012-12-26 14:56:00
7:56 AM,50.0,43.0,77,29.96,10.0,West,6.9,-,N/A,,Mostly Cloudy,270,2012-12-26 15:56:00
8:13 AM,51.8,42.8,71,29.96,4.0,WNW,6.9,-,0.00,Rain,Light Rain,300,2012-12-26 16:13:00
8:56 AM,50.0,44.1,80,29.98,9.0,West,5.8,-,0.09,,Mostly Cloudy,280,2012-12-26 16:56:00
9:56 AM,51.1,44.1,77,30.01,8.0,WNW,16.1,-,0.01,Rain,Light Rain,290,2012-12-26 17:56:00
10:56 AM,51.1,46.0,83,30.01,3.0,WNW,16.1,28.8,0.01,Rain,Light Rain,300,2012-12-26 18:56:00
11:02 AM,50.0,46.4,87,30.01,8.0,WNW,9.2,-,0.00,Rain,Light Rain,290,2012-12-26 19:02:00
11:56 AM,51.1,46.9,86,30.00,9.0,West,15.0,-,0.01,Rain,Light Rain,270,2012-12-26 19:56:00
12:56 PM,54.0,48.9,83,30.00,10.0,WNW,18.4,28.8,0.00,,Mostly Cloudy,290,2012-12-26 20:56:00
1:56 PM,54.0,43.0,66,29.99,10.0,West,25.3,33.4,N/A,,Mostly Cloudy,280,2012-12-26 21:56:00
2:56 PM,54.0,43.0,66,30.00,10.0,West,23.0,34.5,N/A,,Mostly Cloudy,280,2012-12-26 22:56:00
3:56 PM,53.1,42.1,66,30.03,10.0,WNW,16.1,27.6,N/A,,Mostly Cloudy,290,2012-12-26 23:56:00
4:56 PM,52.0,42.1,69,30.04,10.0,WNW,18.4,24.2,N/A,,Mostly Cloudy,290,2012-12-27 00:56:00
5:56 PM,52.0,42.1,69,30.05,10.0,WNW,23.0,29.9,N/A,,Scattered Clouds,290,2012-12-27 01:56:00
6:56 PM,51.1,43.0,74,30.05,10.0,West,13.8,-,N/A,,Scattered Clouds,280,2012-12-27 02:56:00
7:56 PM,51.1,42.1,71,30.06,10.0,WNW,16.1,23.0,N/A,,Mostly Cloudy,300,2012-12-27 03:56:00
8:56 PM,50.0,41.0,71,30.07,10.0,WNW,15.0,21.9,N/A,,Scattered Clouds,290,2012-12-27 04:56:00
9:56 PM,50.0,39.9,68,30.09,10.0,WNW,9.2,-,N/A,,Scattered Clouds,300,2012-12-27 05:56:00
10:56 PM,50.0,41.0,71,30.11,10.0,WNW,9.2,-,N/A,,Scattered Clouds,300,2012-12-27 06:56:00
11:56 PM,48.9,39.9,71,30.12,10.0,West,16.1,-,N/A,,Scattered Clouds,280,2012-12-27 07:56:00